owner,sensor,date,latitude,longitude,air_pressure(mBar),qcFlag 
DISL,ioos:station:DISL:BSCA:1,2018-06-01T04:30:00Z,30.3288,-87.8293,9999.0,11144222 
DISL,ioos:station:DISL:BSCA:1,2018-06-01T05:00:00Z,30.3288,-87.8293,9999.0,11144222 
DISL,ioos:station:DISL:BSCA:1,2018-06-01T05:30:00Z,30.3288,-87.8293,9999.0,11144222 
DISL,ioos:station:DISL:BSCA:1,2018-06-01T06:00:00Z,30.3288,-87.8293,9999.0,11144222 
DISL,ioos:station:DISL:BSCA:1,2018-06-01T06:30:00Z,30.3288,-87.8293,9999.0,11144222 
DISL,ioos:station:DISL:BSCA:1,2018-06-01T07:00:00Z,30.3288,-87.8293,9999.0,11144222 
DISL,ioos:station:DISL:BSCA:1,2018-06-01T07:30:00Z,30.3288,-87.8293,9999.0,11144222 
DISL,ioos:station:DISL:BSCA:1,2018-06-01T08:00:00Z,30.3288,-87.8293,9999.0,11144222 
DISL,ioos:station:DISL:BSCA:1,2018-06-01T08:30:00Z,30.3288,-87.8293,9999.0,11144222 
DISL,ioos:station:DISL:BSCA:1,2018-06-01T09:00:00Z,30.3288,-87.8293,9999.0,11144222 
DISL,ioos:station:DISL:BSCA:1,2018-06-01T09:30:00Z,30.3288,-87.8293,9999.0,11144222 
DISL,ioos:station:DISL:BSCA:1,2018-06-01T10:00:00Z,30.3288,-87.8293,9999.0,11144222 
DISL,ioos:station:DISL:BSCA:1,2018-06-01T10:30:00Z,30.3288,-87.8293,9999.0,11144222 
DISL,ioos:station:DISL:BSCA:1,2018-06-01T11:00:00Z,30.3288,-87.8293,9999.0,11144222 
DISL,ioos:station:DISL:BSCA:1,2018-06-01T11:30:00Z,30.3288,-87.8293,9999.0,11144222 
DISL,ioos:station:DISL:BSCA:1,2018-06-01T12:00:00Z,30.3288,-87.8293,9999.0,11144222 
DISL,ioos:station:DISL:BSCA:1,2018-06-01T12:30:00Z,30.3288,-87.8293,9999.0,11144222 
DISL,ioos:station:DISL:BSCA:1,2018-06-01T13:00:00Z,30.3288,-87.8293,9999.0,11144222 
DISL,ioos:station:DISL:BSCA:1,2018-06-01T13:30:00Z,30.3288,-87.8293,9999.0,11144222 
DISL,ioos:station:DISL:BSCA:1,2018-06-01T14:00:00Z,30.3288,-87.8293,9999.0,11144222 
DISL,ioos:station:DISL:BSCA:1,2018-06-01T14:30:00Z,30.3288,-87.8293,9999.0,11144222 
DISL,ioos:station:DISL:BSCA:1,2018-06-01T15:00:00Z,30.3288,-87.8293,9999.0,11144222 
DISL,ioos:station:DISL:BSCA:1,2018-06-01T15:30:00Z,30.3288,-87.8293,9999.0,11144222 
DISL,ioos:station:DISL:BSCA:1,2018-06-01T16:00:00Z,30.3288,-87.8293,9999.0,11144222 
DISL,ioos:station:DISL:BSCA:1,2018-06-01T16:30:00Z,30.3288,-87.8293,9999.0,11144222 
DISL,ioos:station:DISL:BSCA:1,2018-06-01T17:00:00Z,30.3288,-87.8293,9999.0,11144222 
DISL,ioos:station:DISL:BSCA:1,2018-06-01T17:30:00Z,30.3288,-87.8293,9999.0,11144222 
DISL,ioos:station:DISL:BSCA:1,2018-06-01T18:00:00Z,30.3288,-87.8293,9999.0,11144222 
DISL,ioos:station:DISL:BSCA:1,2018-06-01T18:30:00Z,30.3288,-87.8293,9999.0,11144222 
DISL,ioos:station:DISL:BSCA:1,2018-06-01T19:00:00Z,30.3288,-87.8293,9999.0,11144222 
DISL,ioos:station:DISL:BSCA:1,2018-06-01T19:30:00Z,30.3288,-87.8293,9999.0,11144222 
DISL,ioos:station:DISL:BSCA:1,2018-06-01T20:00:00Z,30.3288,-87.8293,9999.0,11144222 
DISL,ioos:station:DISL:BSCA:1,2018-06-01T20:30:00Z,30.3288,-87.8293,9999.0,11144222 
DISL,ioos:station:DISL:BSCA:1,2018-06-01T21:00:00Z,30.3288,-87.8293,9999.0,11144222 
DISL,ioos:station:DISL:BSCA:1,2018-06-01T21:30:00Z,30.3288,-87.8293,9999.0,11144222 
DISL,ioos:station:DISL:BSCA:1,2018-06-01T22:00:00Z,30.3288,-87.8293,9999.0,11144222 
DISL,ioos:station:DISL:BSCA:1,2018-06-01T22:30:00Z,30.3288,-87.8293,9999.0,11144222 
DISL,ioos:station:DISL:BSCA:1,2018-06-01T23:00:00Z,30.3288,-87.8293,9999.0,11144222 
DISL,ioos:station:DISL:BSCA:1,2018-06-01T23:30:00Z,30.3288,-87.8293,9999.0,11144222 
DISL,ioos:station:DISL:BSCA:1,2018-06-01T23:59:00Z,30.3288,-87.8293,1013.546527,1111122 
DISL,ioos:station:DISL:BSCA:1,2018-06-02T00:00:00Z,30.3288,-87.8293,9999.0,11144222 
DISL,ioos:station:DISL:BSCA:1,2018-06-02T00:30:00Z,30.3288,-87.8293,9999.0,11144222 
DISL,ioos:station:DISL:BSCA:1,2018-06-02T01:00:00Z,30.3288,-87.8293,9999.0,11144222 
DISL,ioos:station:DISL:BSCA:1,2018-06-02T01:30:00Z,30.3288,-87.8293,9999.0,11144222 
DISL,ioos:station:DISL:BSCA:1,2018-06-02T02:00:00Z,30.3288,-87.8293,9999.0,11144222 
DISL,ioos:station:DISL:BSCA:1,2018-06-02T02:30:00Z,30.3288,-87.8293,9999.0,11144222 
DISL,ioos:station:DISL:BSCA:1,2018-06-02T03:00:00Z,30.3288,-87.8293,9999.0,11144222 
DISL,ioos:station:DISL:BSCA:1,2018-06-02T03:30:00Z,30.3288,-87.8293,9999.0,11144222 
DISL,ioos:station:DISL:BSCA:1,2018-06-02T04:00:00Z,30.3288,-87.8293,1014.2,11111222 
DISL,ioos:station:DISL:BSCA:1,2018-06-02T04:30:00Z,30.3288,-87.8293,1013.9,11111222 
DISL,ioos:station:DISL:BSCA:1,2018-06-02T04:31:00Z,30.3288,-87.8293,1013.885166,1111122 
DISL,ioos:station:DISL:BSCA:1,2018-06-02T05:00:00Z,30.3288,-87.8293,1013.9,11111222 
DISL,ioos:station:DISL:BSCA:1,2018-06-02T05:30:00Z,30.3288,-87.8293,1013.9,11111222 
DISL,ioos:station:DISL:BSCA:1,2018-06-02T05:31:00Z,30.3288,-87.8293,1013.885166,1111122 
DISL,ioos:station:DISL:BSCA:1,2018-06-02T06:00:00Z,30.3288,-87.8293,1013.5,11111222 
DISL,ioos:station:DISL:BSCA:1,2018-06-02T06:01:00Z,30.3288,-87.8293,1013.546527,1111122 
DISL,ioos:station:DISL:BSCA:1,2018-06-02T06:30:00Z,30.3288,-87.8293,9999.0,11144222 
DISL,ioos:station:DISL:BSCA:1,2018-06-02T07:00:00Z,30.3288,-87.8293,9999.0,11144222 
DISL,ioos:station:DISL:BSCA:1,2018-06-02T07:30:00Z,30.3288,-87.8293,1012.9,11111222 
DISL,ioos:station:DISL:BSCA:1,2018-06-02T08:00:00Z,30.3288,-87.8293,1012.9,11111222 
DISL,ioos:station:DISL:BSCA:1,2018-06-02T08:30:00Z,30.3288,-87.8293,1012.9,11111222 
DISL,ioos:station:DISL:BSCA:1,2018-06-02T08:31:00Z,30.3288,-87.8293,1012.869249,1111122 
DISL,ioos:station:DISL:BSCA:1,2018-06-02T09:00:00Z,30.3288,-87.8293,1012.9,11111222 
DISL,ioos:station:DISL:BSCA:1,2018-06-02T09:30:00Z,30.3288,-87.8293,1012.9,11111222 
DISL,ioos:station:DISL:BSCA:1,2018-06-02T09:31:00Z,30.3288,-87.8293,1012.869249,1111122 
DISL,ioos:station:DISL:BSCA:1,2018-06-02T10:00:00Z,30.3288,-87.8293,9999.0,11144222 
DISL,ioos:station:DISL:BSCA:1,2018-06-02T10:30:00Z,30.3288,-87.8293,9999.0,11144222 
DISL,ioos:station:DISL:BSCA:1,2018-06-02T10:35:00Z,30.3288,-87.8293,1012.869249,1111122 
DISL,ioos:station:DISL:BSCA:1,2018-06-02T11:00:00Z,30.3288,-87.8293,9999.0,11144222 
DISL,ioos:station:DISL:BSCA:1,2018-06-02T11:30:00Z,30.3288,-87.8293,9999.0,11144222 
DISL,ioos:station:DISL:BSCA:1,2018-06-02T11:39:00Z,30.3288,-87.8293,1013.207888,1111122 
DISL,ioos:station:DISL:BSCA:1,2018-06-02T12:00:00Z,30.3288,-87.8293,9999.0,11144222 
DISL,ioos:station:DISL:BSCA:1,2018-06-02T12:30:00Z,30.3288,-87.8293,9999.0,11144222 
DISL,ioos:station:DISL:BSCA:1,2018-06-02T13:00:00Z,30.3288,-87.8293,9999.0,11144222 
DISL,ioos:station:DISL:BSCA:1,2018-06-02T13:30:00Z,30.3288,-87.8293,9999.0,11144222 
DISL,ioos:station:DISL:BSCA:1,2018-06-02T14:00:00Z,30.3288,-87.8293,9999.0,11144222 
DISL,ioos:station:DISL:BSCA:1,2018-06-02T14:30:00Z,30.3288,-87.8293,9999.0,11144222 
DISL,ioos:station:DISL:BSCA:1,2018-06-02T15:00:00Z,30.3288,-87.8293,9999.0,11144222 
DISL,ioos:station:DISL:BSCA:1,2018-06-02T15:30:00Z,30.3288,-87.8293,9999.0,11144222 
DISL,ioos:station:DISL:BSCA:1,2018-06-02T16:00:00Z,30.3288,-87.8293,9999.0,11144222 
DISL,ioos:station:DISL:BSCA:1,2018-06-02T16:27:00Z,30.3288,-87.8293,1013.546527,1111122 
DISL,ioos:station:DISL:BSCA:1,2018-06-02T16:30:00Z,30.3288,-87.8293,9999.0,11144222 
DISL,ioos:station:DISL:BSCA:1,2018-06-02T17:00:00Z,30.3288,-87.8293,9999.0,11144222 
DISL,ioos:station:DISL:BSCA:1,2018-06-02T17:30:00Z,30.3288,-87.8293,9999.0,11144222 
DISL,ioos:station:DISL:BSCA:1,2018-06-02T18:00:00Z,30.3288,-87.8293,9999.0,11144222 
DISL,ioos:station:DISL:BSCA:1,2018-06-02T18:30:00Z,30.3288,-87.8293,9999.0,11144222 
DISL,ioos:station:DISL:BSCA:1,2018-06-02T19:00:00Z,30.3288,-87.8293,9999.0,11144222 
DISL,ioos:station:DISL:BSCA:1,2018-06-02T19:30:00Z,30.3288,-87.8293,9999.0,11144222 
DISL,ioos:station:DISL:BSCA:1,2018-06-02T20:00:00Z,30.3288,-87.8293,9999.0,11144222 
DISL,ioos:station:DISL:BSCA:1,2018-06-02T20:30:00Z,30.3288,-87.8293,9999.0,11144222 
DISL,ioos:station:DISL:BSCA:1,2018-06-02T21:00:00Z,30.3288,-87.8293,1011.9,11111222 
DISL,ioos:station:DISL:BSCA:1,2018-06-02T21:01:00Z,30.3288,-87.8293,1013.207888,1111122 
DISL,ioos:station:DISL:BSCA:1,2018-06-02T22:00:00Z,30.3288,-87.8293,1011.2,11111222 
DISL,ioos:station:DISL:BSCA:1,2018-06-02T22:30:00Z,30.3288,-87.8293,1010.8,11111222 
DISL,ioos:station:DISL:BSCA:1,2018-06-02T22:31:00Z,30.3288,-87.8293,1010.837415,1111122 
DISL,ioos:station:DISL:BSCA:1,2018-06-02T23:00:00Z,30.3288,-87.8293,1011.2,11111222 
DISL,ioos:station:DISL:BSCA:1,2018-06-02T23:30:00Z,30.3288,-87.8293,1011.5,11111222 
DISL,ioos:station:DISL:BSCA:1,2018-06-02T23:31:00Z,30.3288,-87.8293,1011.514693,1111122 
DISL,ioos:station:DISL:BSCA:1,2018-06-03T00:00:00Z,30.3288,-87.8293,1011.5,11111222 
DISL,ioos:station:DISL:BSCA:1,2018-06-03T00:30:00Z,30.3288,-87.8293,1011.5,11111222 
DISL,ioos:station:DISL:BSCA:1,2018-06-03T00:34:00Z,30.3288,-87.8293,1011.514693,1111122 
DISL,ioos:station:DISL:BSCA:1,2018-06-03T01:00:00Z,30.3288,-87.8293,1010.8,11111222 
DISL,ioos:station:DISL:BSCA:1,2018-06-03T01:30:00Z,30.3288,-87.8293,1011.9,11111222 
DISL,ioos:station:DISL:BSCA:1,2018-06-03T01:32:00Z,30.3288,-87.8293,1012.191971,1111122 
DISL,ioos:station:DISL:BSCA:1,2018-06-03T02:00:00Z,30.3288,-87.8293,1012.5,11111222 
DISL,ioos:station:DISL:BSCA:1,2018-06-03T02:30:00Z,30.3288,-87.8293,1012.9,11111222 
DISL,ioos:station:DISL:BSCA:1,2018-06-03T02:31:00Z,30.3288,-87.8293,1012.869249,1111122 
DISL,ioos:station:DISL:BSCA:1,2018-06-03T03:00:00Z,30.3288,-87.8293,1013.5,11111222 
DISL,ioos:station:DISL:BSCA:1,2018-06-03T03:30:00Z,30.3288,-87.8293,1012.5,11111222 
DISL,ioos:station:DISL:BSCA:1,2018-06-03T03:31:00Z,30.3288,-87.8293,1012.869249,1111122 
DISL,ioos:station:DISL:BSCA:1,2018-06-03T04:00:00Z,30.3288,-87.8293,1011.2,11111222 
DISL,ioos:station:DISL:BSCA:1,2018-06-03T04:01:00Z,30.3288,-87.8293,1011.176054,1111122 
DISL,ioos:station:DISL:BSCA:1,2018-06-03T04:30:00Z,30.3288,-87.8293,9999.0,11144222 
DISL,ioos:station:DISL:BSCA:1,2018-06-03T05:00:00Z,30.3288,-87.8293,1011.9,11111222 
DISL,ioos:station:DISL:BSCA:1,2018-06-03T05:30:00Z,30.3288,-87.8293,1012.2,11111222 
DISL,ioos:station:DISL:BSCA:1,2018-06-03T05:31:00Z,30.3288,-87.8293,1012.191971,1111122 
DISL,ioos:station:DISL:BSCA:1,2018-06-03T06:00:00Z,30.3288,-87.8293,1012.5,11111222 
DISL,ioos:station:DISL:BSCA:1,2018-06-03T06:30:00Z,30.3288,-87.8293,1012.5,11111222 
DISL,ioos:station:DISL:BSCA:1,2018-06-03T07:00:00Z,30.3288,-87.8293,1012.5,11111222 
DISL,ioos:station:DISL:BSCA:1,2018-06-03T07:30:00Z,30.3288,-87.8293,1012.5,11111222 
DISL,ioos:station:DISL:BSCA:1,2018-06-03T08:00:00Z,30.3288,-87.8293,1012.5,11111222 
DISL,ioos:station:DISL:BSCA:1,2018-06-03T08:30:00Z,30.3288,-87.8293,1012.5,11111222 
DISL,ioos:station:DISL:BSCA:1,2018-06-03T09:00:00Z,30.3288,-87.8293,1012.9,11111222 
DISL,ioos:station:DISL:BSCA:1,2018-06-03T09:30:00Z,30.3288,-87.8293,1012.9,11111222 
DISL,ioos:station:DISL:BSCA:1,2018-06-03T10:30:00Z,30.3288,-87.8293,1013.9,11111222 
DISL,ioos:station:DISL:BSCA:1,2018-06-03T11:00:00Z,30.3288,-87.8293,1013.9,11111222 
DISL,ioos:station:DISL:BSCA:1,2018-06-03T11:30:00Z,30.3288,-87.8293,1013.9,11111222 
DISL,ioos:station:DISL:BSCA:1,2018-06-03T12:00:00Z,30.3288,-87.8293,1014.2,11111222 
DISL,ioos:station:DISL:BSCA:1,2018-06-03T12:30:00Z,30.3288,-87.8293,1014.6,11111222 
DISL,ioos:station:DISL:BSCA:1,2018-06-03T13:00:00Z,30.3288,-87.8293,1014.6,11111222 
DISL,ioos:station:DISL:BSCA:1,2018-06-03T13:30:00Z,30.3288,-87.8293,1014.9,11111222 
DISL,ioos:station:DISL:BSCA:1,2018-06-03T14:00:00Z,30.3288,-87.8293,1014.9,11111222 
DISL,ioos:station:DISL:BSCA:1,2018-06-03T14:30:00Z,30.3288,-87.8293,1014.9,11111222 
DISL,ioos:station:DISL:BSCA:1,2018-06-03T15:00:00Z,30.3288,-87.8293,1014.6,11111222 
DISL,ioos:station:DISL:BSCA:1,2018-06-03T15:30:00Z,30.3288,-87.8293,1014.6,11111222 
DISL,ioos:station:DISL:BSCA:1,2018-06-03T16:00:00Z,30.3288,-87.8293,1014.6,11111222 
DISL,ioos:station:DISL:BSCA:1,2018-06-03T16:30:00Z,30.3288,-87.8293,1014.2,11111222 
DISL,ioos:station:DISL:BSCA:1,2018-06-03T17:00:00Z,30.3288,-87.8293,1014.2,11111222 
DISL,ioos:station:DISL:BSCA:1,2018-06-03T17:30:00Z,30.3288,-87.8293,1014.2,11111222 
DISL,ioos:station:DISL:BSCA:1,2018-06-03T18:00:00Z,30.3288,-87.8293,1014.2,11111222 
DISL,ioos:station:DISL:BSCA:1,2018-06-03T18:30:00Z,30.3288,-87.8293,1013.9,11111222 
DISL,ioos:station:DISL:BSCA:1,2018-06-03T19:00:00Z,30.3288,-87.8293,1013.5,11111222 
DISL,ioos:station:DISL:BSCA:1,2018-06-03T19:30:00Z,30.3288,-87.8293,1013.5,11111222 
DISL,ioos:station:DISL:BSCA:1,2018-06-03T20:00:00Z,30.3288,-87.8293,1013.2,11111222 
DISL,ioos:station:DISL:BSCA:1,2018-06-03T20:30:00Z,30.3288,-87.8293,1013.2,11111222 
DISL,ioos:station:DISL:BSCA:1,2018-06-03T21:00:00Z,30.3288,-87.8293,1012.9,11111222 
DISL,ioos:station:DISL:BSCA:1,2018-06-03T21:30:00Z,30.3288,-87.8293,1012.5,11111222 
DISL,ioos:station:DISL:BSCA:1,2018-06-03T22:00:00Z,30.3288,-87.8293,1012.2,11111222 
DISL,ioos:station:DISL:BSCA:1,2018-06-03T22:30:00Z,30.3288,-87.8293,1012.2,11111222 
DISL,ioos:station:DISL:BSCA:1,2018-06-03T23:00:00Z,30.3288,-87.8293,9999.0,11144222 
DISL,ioos:station:DISL:BSCA:1,2018-06-03T23:30:00Z,30.3288,-87.8293,1012.9,11111222 
DISL,ioos:station:DISL:BSCA:1,2018-06-04T00:00:00Z,30.3288,-87.8293,1012.9,11111222 
DISL,ioos:station:DISL:BSCA:1,2018-06-04T00:30:00Z,30.3288,-87.8293,1012.5,11111222 
DISL,ioos:station:DISL:BSCA:1,2018-06-04T01:00:00Z,30.3288,-87.8293,1012.9,11111222 
DISL,ioos:station:DISL:BSCA:1,2018-06-04T02:00:00Z,30.3288,-87.8293,9999.0,11144222 
DISL,ioos:station:DISL:BSCA:1,2018-06-04T02:30:00Z,30.3288,-87.8293,1014.6,11111222 
DISL,ioos:station:DISL:BSCA:1,2018-06-04T03:00:00Z,30.3288,-87.8293,1014.562444,1111122 
DISL,ioos:station:DISL:BSCA:1,2018-06-04T03:30:00Z,30.3288,-87.8293,1014.9,11111222 
DISL,ioos:station:DISL:BSCA:1,2018-06-04T04:00:00Z,30.3288,-87.8293,1016.255639,1111122 
DISL,ioos:station:DISL:BSCA:1,2018-06-04T04:30:00Z,30.3288,-87.8293,1014.901083,1111122 
DISL,ioos:station:DISL:BSCA:1,2018-06-04T05:00:00Z,30.3288,-87.8293,1015.6,11111222 
DISL,ioos:station:DISL:BSCA:1,2018-06-04T05:30:00Z,30.3288,-87.8293,1014.901083,1111122 
DISL,ioos:station:DISL:BSCA:1,2018-06-04T06:00:00Z,30.3288,-87.8293,1014.2,11111222 
DISL,ioos:station:DISL:BSCA:1,2018-06-04T06:30:00Z,30.3288,-87.8293,1014.6,11111222 
DISL,ioos:station:DISL:BSCA:1,2018-06-04T06:34:00Z,30.3288,-87.8293,1014.901083,1111122 
DISL,ioos:station:DISL:BSCA:1,2018-06-04T07:00:00Z,30.3288,-87.8293,9999.0,11144222 
DISL,ioos:station:DISL:BSCA:1,2018-06-04T07:17:00Z,30.3288,-87.8293,1013.885166,1111122 
DISL,ioos:station:DISL:BSCA:1,2018-06-04T07:30:00Z,30.3288,-87.8293,9999.0,11144222 
DISL,ioos:station:DISL:BSCA:1,2018-06-04T08:00:00Z,30.3288,-87.8293,9999.0,11144222 
DISL,ioos:station:DISL:BSCA:1,2018-06-04T08:30:00Z,30.3288,-87.8293,9999.0,11144222 
DISL,ioos:station:DISL:BSCA:1,2018-06-04T09:00:00Z,30.3288,-87.8293,9999.0,11144222 
DISL,ioos:station:DISL:BSCA:1,2018-06-04T09:30:00Z,30.3288,-87.8293,9999.0,11144222 
DISL,ioos:station:DISL:BSCA:1,2018-06-04T10:00:00Z,30.3288,-87.8293,9999.0,11144222 
DISL,ioos:station:DISL:BSCA:1,2018-06-04T10:30:00Z,30.3288,-87.8293,9999.0,11144222 
DISL,ioos:station:DISL:BSCA:1,2018-06-04T11:00:00Z,30.3288,-87.8293,9999.0,11144222 
DISL,ioos:station:DISL:BSCA:1,2018-06-04T11:30:00Z,30.3288,-87.8293,9999.0,11144222 
DISL,ioos:station:DISL:BSCA:1,2018-06-04T12:00:00Z,30.3288,-87.8293,9999.0,11144222 
DISL,ioos:station:DISL:BSCA:1,2018-06-04T12:30:00Z,30.3288,-87.8293,9999.0,11144222 
DISL,ioos:station:DISL:BSCA:1,2018-06-04T13:00:00Z,30.3288,-87.8293,9999.0,11144222 
DISL,ioos:station:DISL:BSCA:1,2018-06-04T13:30:00Z,30.3288,-87.8293,9999.0,11144222 
DISL,ioos:station:DISL:BSCA:1,2018-06-04T14:00:00Z,30.3288,-87.8293,9999.0,11144222 
DISL,ioos:station:DISL:BSCA:1,2018-06-04T15:38:00Z,30.3288,-87.8293,1015.917,1111122 
DISL,ioos:station:DISL:BSCA:1,2018-06-04T21:00:00Z,30.3288,-87.8293,9999.0,11144222 
DISL,ioos:station:DISL:BSCA:1,2018-06-04T21:30:00Z,30.3288,-87.8293,9999.0,11144222 
DISL,ioos:station:DISL:BSCA:1,2018-06-04T22:00:00Z,30.3288,-87.8293,9999.0,11144222 
DISL,ioos:station:DISL:BSCA:1,2018-06-04T22:30:00Z,30.3288,-87.8293,9999.0,11144222 
DISL,ioos:station:DISL:BSCA:1,2018-06-04T23:00:00Z,30.3288,-87.8293,9999.0,11144222 
DISL,ioos:station:DISL:BSCA:1,2018-06-04T23:30:00Z,30.3288,-87.8293,9999.0,11144222 
DISL,ioos:station:DISL:BSCA:1,2018-06-05T00:00:00Z,30.3288,-87.8293,9999.0,11144222 
DISL,ioos:station:DISL:BSCA:1,2018-06-05T00:30:00Z,30.3288,-87.8293,9999.0,11144222 
DISL,ioos:station:DISL:BSCA:1,2018-06-05T01:00:00Z,30.3288,-87.8293,9999.0,11144222 
DISL,ioos:station:DISL:BSCA:1,2018-06-05T01:30:00Z,30.3288,-87.8293,9999.0,11144222 
DISL,ioos:station:DISL:BSCA:1,2018-06-05T02:00:00Z,30.3288,-87.8293,9999.0,11144222 
DISL,ioos:station:DISL:BSCA:1,2018-06-05T02:30:00Z,30.3288,-87.8293,9999.0,11144222 
DISL,ioos:station:DISL:BSCA:1,2018-06-05T03:00:00Z,30.3288,-87.8293,9999.0,11144222 
DISL,ioos:station:DISL:BSCA:1,2018-06-05T03:30:00Z,30.3288,-87.8293,9999.0,11144222 
DISL,ioos:station:DISL:BSCA:1,2018-06-05T04:00:00Z,30.3288,-87.8293,9999.0,11144222 
DISL,ioos:station:DISL:BSCA:1,2018-06-05T04:30:00Z,30.3288,-87.8293,9999.0,11144222 
DISL,ioos:station:DISL:BSCA:1,2018-06-05T05:00:00Z,30.3288,-87.8293,9999.0,11144222 
DISL,ioos:station:DISL:BSCA:1,2018-06-05T05:30:00Z,30.3288,-87.8293,9999.0,11144222 
DISL,ioos:station:DISL:BSCA:1,2018-06-05T06:00:00Z,30.3288,-87.8293,9999.0,11144222 
DISL,ioos:station:DISL:BSCA:1,2018-06-05T06:30:00Z,30.3288,-87.8293,9999.0,11144222 
DISL,ioos:station:DISL:BSCA:1,2018-06-05T07:00:00Z,30.3288,-87.8293,9999.0,11144222 
DISL,ioos:station:DISL:BSCA:1,2018-06-05T07:30:00Z,30.3288,-87.8293,9999.0,11144222 
DISL,ioos:station:DISL:BSCA:1,2018-06-05T08:00:00Z,30.3288,-87.8293,9999.0,11144222 
DISL,ioos:station:DISL:BSCA:1,2018-06-05T08:30:00Z,30.3288,-87.8293,9999.0,11144222 
DISL,ioos:station:DISL:BSCA:1,2018-06-05T09:00:00Z,30.3288,-87.8293,9999.0,11144222 
DISL,ioos:station:DISL:BSCA:1,2018-06-05T09:30:00Z,30.3288,-87.8293,9999.0,11144222 
DISL,ioos:station:DISL:BSCA:1,2018-06-05T10:00:00Z,30.3288,-87.8293,9999.0,11144222 
DISL,ioos:station:DISL:BSCA:1,2018-06-05T10:30:00Z,30.3288,-87.8293,9999.0,11144222 
DISL,ioos:station:DISL:BSCA:1,2018-06-05T11:00:00Z,30.3288,-87.8293,9999.0,11144222 
DISL,ioos:station:DISL:BSCA:1,2018-06-05T11:30:00Z,30.3288,-87.8293,9999.0,11144222 
DISL,ioos:station:DISL:BSCA:1,2018-06-05T12:00:00Z,30.3288,-87.8293,9999.0,11144222 
DISL,ioos:station:DISL:BSCA:1,2018-06-05T12:30:00Z,30.3288,-87.8293,9999.0,11144222 
DISL,ioos:station:DISL:BSCA:1,2018-06-05T13:00:00Z,30.3288,-87.8293,9999.0,11144222 
DISL,ioos:station:DISL:BSCA:1,2018-06-05T13:30:00Z,30.3288,-87.8293,9999.0,11144222 
DISL,ioos:station:DISL:BSCA:1,2018-06-05T14:00:00Z,30.3288,-87.8293,9999.0,11144222 
DISL,ioos:station:DISL:BSCA:1,2018-06-05T14:30:00Z,30.3288,-87.8293,9999.0,11144222 
DISL,ioos:station:DISL:BSCA:1,2018-06-05T15:00:00Z,30.3288,-87.8293,9999.0,11144222 
DISL,ioos:station:DISL:BSCA:1,2018-06-05T15:30:00Z,30.3288,-87.8293,9999.0,11144222 
DISL,ioos:station:DISL:BSCA:1,2018-06-05T16:00:00Z,30.3288,-87.8293,1014.6,11111222 
DISL,ioos:station:DISL:BSCA:1,2018-06-05T16:30:00Z,30.3288,-87.8293,1014.2,11111222 
DISL,ioos:station:DISL:BSCA:1,2018-06-05T17:00:00Z,30.3288,-87.8293,1014.6,11111222 
DISL,ioos:station:DISL:BSCA:1,2018-06-05T17:30:00Z,30.3288,-87.8293,1015.2,11111222 
DISL,ioos:station:DISL:BSCA:1,2018-06-05T18:00:00Z,30.3288,-87.8293,1013.9,11111222 
DISL,ioos:station:DISL:BSCA:1,2018-06-05T18:30:00Z,30.3288,-87.8293,1012.9,11111222 
DISL,ioos:station:DISL:BSCA:1,2018-06-05T19:00:00Z,30.3288,-87.8293,1012.9,11111222 
DISL,ioos:station:DISL:BSCA:1,2018-06-05T19:30:00Z,30.3288,-87.8293,1012.2,11111222 
DISL,ioos:station:DISL:BSCA:1,2018-06-05T20:00:00Z,30.3288,-87.8293,1011.5,11111222 
DISL,ioos:station:DISL:BSCA:1,2018-06-05T20:30:00Z,30.3288,-87.8293,1010.8,11111222 
DISL,ioos:station:DISL:BSCA:1,2018-06-05T21:00:00Z,30.3288,-87.8293,1010.8,11111222 
DISL,ioos:station:DISL:BSCA:1,2018-06-05T21:30:00Z,30.3288,-87.8293,1010.8,11111222 
DISL,ioos:station:DISL:BSCA:1,2018-06-05T22:00:00Z,30.3288,-87.8293,1011.5,11111222 
DISL,ioos:station:DISL:BSCA:1,2018-06-05T22:30:00Z,30.3288,-87.8293,1011.9,11111222 
DISL,ioos:station:DISL:BSCA:1,2018-06-05T23:00:00Z,30.3288,-87.8293,1011.9,11111222 
DISL,ioos:station:DISL:BSCA:1,2018-06-05T23:30:00Z,30.3288,-87.8293,1011.5,11111222 
DISL,ioos:station:DISL:BSCA:1,2018-06-06T00:00:00Z,30.3288,-87.8293,1011.2,11111222 
DISL,ioos:station:DISL:BSCA:1,2018-06-06T00:30:00Z,30.3288,-87.8293,1011.2,11111222 
DISL,ioos:station:DISL:BSCA:1,2018-06-06T01:00:00Z,30.3288,-87.8293,1010.8,11111222 
DISL,ioos:station:DISL:BSCA:1,2018-06-06T01:30:00Z,30.3288,-87.8293,1011.2,11111222 
DISL,ioos:station:DISL:BSCA:1,2018-06-06T02:00:00Z,30.3288,-87.8293,1010.8,11111222 
DISL,ioos:station:DISL:BSCA:1,2018-06-06T02:30:00Z,30.3288,-87.8293,1010.8,11111222 
DISL,ioos:station:DISL:BSCA:1,2018-06-06T03:00:00Z,30.3288,-87.8293,1011.2,11111222 
DISL,ioos:station:DISL:BSCA:1,2018-06-06T03:30:00Z,30.3288,-87.8293,1011.2,11111222 
DISL,ioos:station:DISL:BSCA:1,2018-06-06T04:00:00Z,30.3288,-87.8293,1011.2,11111222 
DISL,ioos:station:DISL:BSCA:1,2018-06-06T04:30:00Z,30.3288,-87.8293,1011.2,11111222 
DISL,ioos:station:DISL:BSCA:1,2018-06-06T05:00:00Z,30.3288,-87.8293,1011.2,11111222 
DISL,ioos:station:DISL:BSCA:1,2018-06-06T05:30:00Z,30.3288,-87.8293,1011.2,11111222 
DISL,ioos:station:DISL:BSCA:1,2018-06-06T06:00:00Z,30.3288,-87.8293,1010.8,11111222 
DISL,ioos:station:DISL:BSCA:1,2018-06-06T06:30:00Z,30.3288,-87.8293,1010.8,11111222 
DISL,ioos:station:DISL:BSCA:1,2018-06-06T07:00:00Z,30.3288,-87.8293,1010.5,11111222 
DISL,ioos:station:DISL:BSCA:1,2018-06-06T07:30:00Z,30.3288,-87.8293,1010.5,11111222 
DISL,ioos:station:DISL:BSCA:1,2018-06-06T08:00:00Z,30.3288,-87.8293,1010.2,11111222 
DISL,ioos:station:DISL:BSCA:1,2018-06-06T08:30:00Z,30.3288,-87.8293,1010.5,11111222 
DISL,ioos:station:DISL:BSCA:1,2018-06-06T09:00:00Z,30.3288,-87.8293,1010.5,11111222 
DISL,ioos:station:DISL:BSCA:1,2018-06-06T09:30:00Z,30.3288,-87.8293,1010.8,11111222 
DISL,ioos:station:DISL:BSCA:1,2018-06-06T10:00:00Z,30.3288,-87.8293,1011.2,11111222 
DISL,ioos:station:DISL:BSCA:1,2018-06-06T10:30:00Z,30.3288,-87.8293,1011.2,11111222 
DISL,ioos:station:DISL:BSCA:1,2018-06-06T11:00:00Z,30.3288,-87.8293,1011.5,11111222 
DISL,ioos:station:DISL:BSCA:1,2018-06-06T11:30:00Z,30.3288,-87.8293,1011.2,11111222 
DISL,ioos:station:DISL:BSCA:1,2018-06-06T12:00:00Z,30.3288,-87.8293,1011.2,11111222 
DISL,ioos:station:DISL:BSCA:1,2018-06-06T12:30:00Z,30.3288,-87.8293,1011.2,11111222 
DISL,ioos:station:DISL:BSCA:1,2018-06-06T13:00:00Z,30.3288,-87.8293,1011.2,11111222 
DISL,ioos:station:DISL:BSCA:1,2018-06-06T13:30:00Z,30.3288,-87.8293,1011.5,11111222 
DISL,ioos:station:DISL:BSCA:1,2018-06-06T14:00:00Z,30.3288,-87.8293,1011.9,11111222 
DISL,ioos:station:DISL:BSCA:1,2018-06-06T14:30:00Z,30.3288,-87.8293,1012.2,11111222 
DISL,ioos:station:DISL:BSCA:1,2018-06-06T15:00:00Z,30.3288,-87.8293,1012.2,11111222 
DISL,ioos:station:DISL:BSCA:1,2018-06-06T15:30:00Z,30.3288,-87.8293,1012.2,11111222 
DISL,ioos:station:DISL:BSCA:1,2018-06-06T16:00:00Z,30.3288,-87.8293,1012.5,11111222 
DISL,ioos:station:DISL:BSCA:1,2018-06-06T16:30:00Z,30.3288,-87.8293,1012.5,11111222 
DISL,ioos:station:DISL:BSCA:1,2018-06-06T17:00:00Z,30.3288,-87.8293,1012.5,11111222 
DISL,ioos:station:DISL:BSCA:1,2018-06-06T17:30:00Z,30.3288,-87.8293,1012.5,11111222 
DISL,ioos:station:DISL:BSCA:1,2018-06-06T18:00:00Z,30.3288,-87.8293,1012.2,11111222 
DISL,ioos:station:DISL:BSCA:1,2018-06-06T18:30:00Z,30.3288,-87.8293,1011.9,11111222 
DISL,ioos:station:DISL:BSCA:1,2018-06-06T19:00:00Z,30.3288,-87.8293,1011.2,11111222 
DISL,ioos:station:DISL:BSCA:1,2018-06-06T19:30:00Z,30.3288,-87.8293,1010.8,11111222 
DISL,ioos:station:DISL:BSCA:1,2018-06-06T20:00:00Z,30.3288,-87.8293,1010.8,11111222 
DISL,ioos:station:DISL:BSCA:1,2018-06-06T20:30:00Z,30.3288,-87.8293,1010.5,11111222 
DISL,ioos:station:DISL:BSCA:1,2018-06-06T21:00:00Z,30.3288,-87.8293,1010.5,11111222 
DISL,ioos:station:DISL:BSCA:1,2018-06-06T21:30:00Z,30.3288,-87.8293,1010.5,11111222 